Year,Month,Day,Hour,Minute,Value (Times are PST for temperature in C)
2009,09,21,00,00,8.70
2009,09,21,00,01,8.70
2009,09,21,00,02,8.70
2009,09,21,00,03,8.70
2009,09,21,00,04,8.70
2009,09,21,00,05,8.70
2009,09,21,00,06,8.70
2009,09,21,00,07,8.70
2009,09,21,00,08,8.70
2009,09,21,00,09,8.60
2009,09,21,00,10,8.60
2009,09,21,00,11,8.60
2009,09,21,00,12,8.60
2009,09,21,00,13,8.60
2009,09,21,00,14,8.60
2009,09,21,00,15,8.60
2009,09,21,00,16,8.60
2009,09,21,00,17,8.60
2009,09,21,00,18,8.60
2009,09,21,00,19,8.60
2009,09,21,00,20,8.60
2009,09,21,00,21,8.60
2009,09,21,00,22,8.60
2009,09,21,00,23,8.50
2009,09,21,00,24,8.50
2009,09,21,00,25,8.50
2009,09,21,00,26,8.50
2009,09,21,00,27,8.50
2009,09,21,00,28,8.50
2009,09,21,00,29,8.50
2009,09,21,00,30,8.50
2009,09,21,00,31,8.50
2009,09,21,00,32,8.50
2009,09,21,00,33,8.50
2009,09,21,00,34,8.60
2009,09,21,00,35,8.60
2009,09,21,00,36,8.60
2009,09,21,00,37,8.60
2009,09,21,00,38,8.60
2009,09,21,00,39,8.60
2009,09,21,00,40,8.60
2009,09,21,00,41,8.60
2009,09,21,00,42,8.60
2009,09,21,00,43,8.60
2009,09,21,00,44,8.60
2009,09,21,00,45,8.60
2009,09,21,00,46,8.60
2009,09,21,00,47,8.60
2009,09,21,00,48,8.70
2009,09,21,00,49,8.70
2009,09,21,00,50,8.70
2009,09,21,00,51,8.70
2009,09,21,00,52,8.70
2009,09,21,00,53,8.70
2009,09,21,00,54,8.70
2009,09,21,00,55,8.70
2009,09,21,00,56,8.70
2009,09,21,00,57,8.70
2009,09,21,00,58,8.60
2009,09,21,00,59,8.60
2009,09,21,01,00,8.60
2009,09,21,01,01,8.60
2009,09,21,01,02,8.60
2009,09,21,01,03,8.60
2009,09,21,01,04,8.60
2009,09,21,01,05,8.60
2009,09,21,01,06,8.60
2009,09,21,01,07,8.70
2009,09,21,01,08,8.70
2009,09,21,01,09,8.70
2009,09,21,01,10,8.70
2009,09,21,01,11,8.70
2009,09,21,01,12,8.70
2009,09,21,01,13,8.70
2009,09,21,01,14,8.60
2009,09,21,01,15,8.60
2009,09,21,01,16,8.60
2009,09,21,01,17,8.60
2009,09,21,01,18,8.60
2009,09,21,01,19,8.60
2009,09,21,01,20,8.60
2009,09,21,01,21,8.60
2009,09,21,01,22,8.60
2009,09,21,01,23,8.60
2009,09,21,01,24,8.60
2009,09,21,01,25,8.60
2009,09,21,01,26,8.60
2009,09,21,01,27,8.60
2009,09,21,01,28,8.60
2009,09,21,01,29,8.70
2009,09,21,01,30,8.70
2009,09,21,01,31,8.70
2009,09,21,01,32,8.70
2009,09,21,01,33,8.70
2009,09,21,01,34,8.70
2009,09,21,01,35,8.70
2009,09,21,01,36,8.70
2009,09,21,01,37,8.60
2009,09,21,01,38,8.60
2009,09,21,01,39,8.60
2009,09,21,01,40,8.60
2009,09,21,01,41,8.60
2009,09,21,01,42,8.60
2009,09,21,01,43,8.60
2009,09,21,01,44,8.50
2009,09,21,01,45,8.50
2009,09,21,01,46,8.50
2009,09,21,01,47,8.50
2009,09,21,01,48,8.50
2009,09,21,01,49,8.50
2009,09,21,01,50,8.50
2009,09,21,01,51,8.60
2009,09,21,01,52,8.60
2009,09,21,01,53,8.60
2009,09,21,01,54,8.60
2009,09,21,01,55,8.60
2009,09,21,01,56,8.60
2009,09,21,01,57,8.60
2009,09,21,01,58,8.60
2009,09,21,01,59,8.60
2009,09,21,02,00,8.60
2009,09,21,02,01,8.60
2009,09,21,02,02,8.60
2009,09,21,02,03,8.60
2009,09,21,02,04,8.60
2009,09,21,02,05,8.60
2009,09,21,02,06,8.60
2009,09,21,02,07,8.50
2009,09,21,02,08,8.50
2009,09,21,02,09,8.50
2009,09,21,02,10,8.50
2009,09,21,02,11,8.50
2009,09,21,02,12,8.50
2009,09,21,02,13,8.50
2009,09,21,02,14,8.50
2009,09,21,02,15,8.50
2009,09,21,02,16,8.50
2009,09,21,02,17,8.50
2009,09,21,02,18,8.50
2009,09,21,02,19,8.60
2009,09,21,02,20,8.60
2009,09,21,02,21,8.60
2009,09,21,02,22,8.60
2009,09,21,02,23,8.60
2009,09,21,02,24,8.60
2009,09,21,02,25,8.60
2009,09,21,02,26,8.60
2009,09,21,02,27,8.60
2009,09,21,02,28,8.50
2009,09,21,02,29,8.50
2009,09,21,02,30,8.50
2009,09,21,02,31,8.50
2009,09,21,02,32,8.50
2009,09,21,02,33,8.40
2009,09,21,02,34,8.40
2009,09,21,02,35,8.40
2009,09,21,02,36,8.40
2009,09,21,02,37,8.40
2009,09,21,02,38,8.40
2009,09,21,02,39,8.40
2009,09,21,02,40,8.40
2009,09,21,02,41,8.40
2009,09,21,02,42,8.40
2009,09,21,02,43,8.40
2009,09,21,02,44,8.40
2009,09,21,02,45,8.40
2009,09,21,02,46,8.40
2009,09,21,02,47,8.40
2009,09,21,02,48,8.30
2009,09,21,02,49,8.30
2009,09,21,02,50,8.30
2009,09,21,02,51,8.30
2009,09,21,02,52,8.30
2009,09,21,02,53,8.30
2009,09,21,02,54,8.30
2009,09,21,02,55,8.30
2009,09,21,02,56,8.30
2009,09,21,02,57,8.30
2009,09,21,02,58,8.30
2009,09,21,02,59,8.30
2009,09,21,03,00,8.30
2009,09,21,03,01,8.30
2009,09,21,03,02,8.30
2009,09,21,03,03,8.30
2009,09,21,03,04,8.30
2009,09,21,03,05,8.30
2009,09,21,03,06,8.30
2009,09,21,03,07,8.30
2009,09,21,03,08,8.30
2009,09,21,03,09,8.20
2009,09,21,03,10,8.20
2009,09,21,03,11,8.20
2009,09,21,03,12,8.30
2009,09,21,03,13,8.30
2009,09,21,03,14,8.30
2009,09,21,03,15,8.30
2009,09,21,03,16,8.30
2009,09,21,03,17,8.30
2009,09,21,03,18,8.30
2009,09,21,03,19,8.30
2009,09,21,03,20,8.30
2009,09,21,03,21,8.30
2009,09,21,03,22,8.30
2009,09,21,03,23,8.30
2009,09,21,03,24,8.30
2009,09,21,03,25,8.30
2009,09,21,03,26,8.30
2009,09,21,03,27,8.30
2009,09,21,03,28,8.30
2009,09,21,03,29,8.20
2009,09,21,03,30,8.20
2009,09,21,03,31,8.20
2009,09,21,03,32,8.20
2009,09,21,03,33,8.20
2009,09,21,03,34,8.20
2009,09,21,03,35,8.20
2009,09,21,03,36,8.20
2009,09,21,03,37,8.20
2009,09,21,03,38,8.20
2009,09,21,03,39,8.20
2009,09,21,03,40,8.20
2009,09,21,03,41,8.20
2009,09,21,03,42,8.20
2009,09,21,03,43,8.20
2009,09,21,03,44,8.20
2009,09,21,03,45,8.20
2009,09,21,03,46,8.20
2009,09,21,03,47,8.20
2009,09,21,03,48,8.20
2009,09,21,03,49,8.20
2009,09,21,03,50,8.20
2009,09,21,03,51,8.20
2009,09,21,03,52,8.20
2009,09,21,03,53,8.20
2009,09,21,03,54,8.20
2009,09,21,03,55,8.20
2009,09,21,03,56,8.20
2009,09,21,03,57,8.30
2009,09,21,03,58,8.20
2009,09,21,03,59,8.30
2009,09,21,04,00,8.30
2009,09,21,04,01,8.20
2009,09,21,04,02,8.20
2009,09,21,04,03,8.20
2009,09,21,04,04,8.20
2009,09,21,04,05,8.20
2009,09,21,04,06,8.20
2009,09,21,04,07,8.20
2009,09,21,04,08,8.20
2009,09,21,04,09,8.20
2009,09,21,04,10,8.20
2009,09,21,04,11,8.30
2009,09,21,04,12,8.30
2009,09,21,04,13,8.30
2009,09,21,04,14,8.30
2009,09,21,04,15,8.30
2009,09,21,04,16,8.30
2009,09,21,04,17,8.30
2009,09,21,04,18,8.30
2009,09,21,04,19,8.30
2009,09,21,04,20,8.30
2009,09,21,04,21,8.40
2009,09,21,04,22,8.40
2009,09,21,04,23,8.40
2009,09,21,04,24,8.40
2009,09,21,04,25,8.40
2009,09,21,04,26,8.40
2009,09,21,04,27,8.40
2009,09,21,04,28,8.40
2009,09,21,04,29,8.30
2009,09,21,04,30,8.30
2009,09,21,04,31,8.30
2009,09,21,04,32,8.30
2009,09,21,04,33,8.30
2009,09,21,04,34,8.30
2009,09,21,04,35,8.30
2009,09,21,04,36,8.30
2009,09,21,04,37,8.30
2009,09,21,04,38,8.30
2009,09,21,04,39,8.30
2009,09,21,04,40,8.40
2009,09,21,04,41,8.40
2009,09,21,04,42,8.40
2009,09,21,04,43,8.40
2009,09,21,04,44,8.40
2009,09,21,04,45,8.40
2009,09,21,04,46,8.30
2009,09,21,04,47,8.30
2009,09,21,04,48,8.30
2009,09,21,04,49,8.30
2009,09,21,04,50,8.30
2009,09,21,04,51,8.40
2009,09,21,04,52,8.40
2009,09,21,04,53,8.40
2009,09,21,04,54,8.40
2009,09,21,04,55,8.40
2009,09,21,04,56,8.40
2009,09,21,04,57,8.40
2009,09,21,04,58,8.40
2009,09,21,04,59,8.40
2009,09,21,05,00,8.40
2009,09,21,05,01,8.50
2009,09,21,05,02,8.50
2009,09,21,05,03,8.50
2009,09,21,05,04,8.50
2009,09,21,05,05,8.50
2009,09,21,05,06,8.50
2009,09,21,05,07,8.50
2009,09,21,05,08,8.50
2009,09,21,05,09,8.50
2009,09,21,05,10,8.50
2009,09,21,05,11,8.50
2009,09,21,05,12,8.50
2009,09,21,05,13,8.50
2009,09,21,05,14,8.50
2009,09,21,05,15,8.50
2009,09,21,05,16,8.50
2009,09,21,05,17,8.40
2009,09,21,05,18,8.40
2009,09,21,05,19,8.40
2009,09,21,05,20,8.40
2009,09,21,05,21,8.40
2009,09,21,05,22,8.40
2009,09,21,05,23,8.40
2009,09,21,05,24,8.40
2009,09,21,05,25,8.40
2009,09,21,05,26,8.40
2009,09,21,05,27,8.40
2009,09,21,05,28,8.50
2009,09,21,05,29,8.50
2009,09,21,05,30,8.50
2009,09,21,05,31,8.50
2009,09,21,05,32,8.50
2009,09,21,05,33,8.50
2009,09,21,05,34,8.50
2009,09,21,05,35,8.40
2009,09,21,05,36,8.40
2009,09,21,05,37,8.40
2009,09,21,05,38,8.40
2009,09,21,05,39,8.40
2009,09,21,05,40,8.40
2009,09,21,05,41,8.40
2009,09,21,05,42,8.40
2009,09,21,05,43,8.40
2009,09,21,05,44,8.40
2009,09,21,05,45,8.40
2009,09,21,05,46,8.40
2009,09,21,05,47,8.40
2009,09,21,05,48,8.40
2009,09,21,05,49,8.40
2009,09,21,05,50,8.40
2009,09,21,05,51,8.40
2009,09,21,05,52,8.40
2009,09,21,05,53,8.40
2009,09,21,05,54,8.40
2009,09,21,05,55,8.40
2009,09,21,05,56,8.50
2009,09,21,05,57,8.50
2009,09,21,05,58,8.50
2009,09,21,05,59,8.50
2009,09,21,06,00,8.60
2009,09,21,06,01,8.60
2009,09,21,06,02,8.60
2009,09,21,06,03,8.60
2009,09,21,06,04,8.60
2009,09,21,06,05,8.60
2009,09,21,06,06,8.60
2009,09,21,06,07,8.60
2009,09,21,06,08,8.60
2009,09,21,06,09,8.50
2009,09,21,06,10,8.50
2009,09,21,06,11,8.50
2009,09,21,06,12,8.50
2009,09,21,06,13,8.50
2009,09,21,06,14,8.50
2009,09,21,06,15,8.50
2009,09,21,06,16,8.50
2009,09,21,06,17,8.50
2009,09,21,06,18,8.50
2009,09,21,06,19,8.50
2009,09,21,06,20,8.60
2009,09,21,06,21,8.60
2009,09,21,06,22,8.60
2009,09,21,06,23,8.60
2009,09,21,06,24,8.60
2009,09,21,06,25,8.60
2009,09,21,06,26,8.60
2009,09,21,06,27,8.60
2009,09,21,06,28,8.60
2009,09,21,06,29,8.60
2009,09,21,06,30,8.60
2009,09,21,06,31,8.60
2009,09,21,06,32,8.60
2009,09,21,06,33,8.60
2009,09,21,06,34,8.60
2009,09,21,06,35,8.60
2009,09,21,06,36,8.60
2009,09,21,06,37,8.60
2009,09,21,06,38,8.70
2009,09,21,06,39,8.70
2009,09,21,06,40,8.70
2009,09,21,06,41,8.70
2009,09,21,06,42,8.70
2009,09,21,06,43,8.70
2009,09,21,06,44,8.70
2009,09,21,06,45,8.70
2009,09,21,06,46,8.70
2009,09,21,06,47,8.70
2009,09,21,06,48,8.70
2009,09,21,06,49,8.70
2009,09,21,06,50,8.70
2009,09,21,06,51,8.70
2009,09,21,06,52,8.70
2009,09,21,06,53,8.70
2009,09,21,06,54,8.70
2009,09,21,06,55,8.60
2009,09,21,06,56,8.60
2009,09,21,06,57,8.60
2009,09,21,06,58,8.70
2009,09,21,06,59,8.70
2009,09,21,07,00,8.70
2009,09,21,07,01,8.70
2009,09,21,07,02,8.70
2009,09,21,07,03,8.70
2009,09,21,07,04,8.70
2009,09,21,07,05,8.70
2009,09,21,07,06,8.70
2009,09,21,07,07,8.70
2009,09,21,07,08,8.70
2009,09,21,07,09,8.70
2009,09,21,07,10,8.70
2009,09,21,07,11,8.70
2009,09,21,07,12,8.70
2009,09,21,07,13,8.70
2009,09,21,07,14,8.70
2009,09,21,07,15,8.70
2009,09,21,07,16,8.70
2009,09,21,07,17,8.70
2009,09,21,07,18,8.70
2009,09,21,07,19,8.70
2009,09,21,07,20,8.70
2009,09,21,07,21,8.70
2009,09,21,07,22,8.70
2009,09,21,07,23,8.70
2009,09,21,07,24,8.70
2009,09,21,07,25,8.70
2009,09,21,07,26,8.80
2009,09,21,07,27,8.80
2009,09,21,07,28,8.80
2009,09,21,07,29,8.80
2009,09,21,07,30,8.80
2009,09,21,07,31,8.80
2009,09,21,07,32,8.80
2009,09,21,07,33,8.80
2009,09,21,07,34,8.80
2009,09,21,07,35,8.80
2009,09,21,07,36,8.80
2009,09,21,07,37,8.80
2009,09,21,07,38,8.80
2009,09,21,07,39,8.80
2009,09,21,07,40,8.80
2009,09,21,07,41,8.80
2009,09,21,07,42,8.80
2009,09,21,07,43,8.80
2009,09,21,07,44,8.80
2009,09,21,07,45,8.90
2009,09,21,07,46,8.90
2009,09,21,07,47,8.90
2009,09,21,07,48,8.90
2009,09,21,07,49,9.00
2009,09,21,07,50,9.00
2009,09,21,07,51,9.10
2009,09,21,07,52,9.10
2009,09,21,07,53,9.10
2009,09,21,07,54,9.20
2009,09,21,07,55,9.20
2009,09,21,07,56,9.30
2009,09,21,07,57,9.30
2009,09,21,07,58,9.30
2009,09,21,07,59,9.40
2009,09,21,08,00,9.40
2009,09,21,08,01,9.50
2009,09,21,08,02,9.50
2009,09,21,08,03,9.60
2009,09,21,08,04,9.60
2009,09,21,08,05,9.70
2009,09,21,08,06,9.70
2009,09,21,08,07,9.80
2009,09,21,08,08,9.80
2009,09,21,08,09,9.90
2009,09,21,08,10,9.90
2009,09,21,08,11,10.00
2009,09,21,08,12,10.00
2009,09,21,08,13,10.10
2009,09,21,08,14,10.10
2009,09,21,08,15,10.20
2009,09,21,08,16,10.30
2009,09,21,08,17,10.40
2009,09,21,08,18,10.60
2009,09,21,08,19,10.70
2009,09,21,08,20,10.80
2009,09,21,08,21,10.90
2009,09,21,08,22,11.00
2009,09,21,08,23,11.10
2009,09,21,08,24,11.20
2009,09,21,08,25,11.20
2009,09,21,08,26,11.30
2009,09,21,08,27,11.40
2009,09,21,08,28,11.50
2009,09,21,08,29,11.60
2009,09,21,08,30,11.70
2009,09,21,08,31,11.80
2009,09,21,08,32,11.90
2009,09,21,08,33,12.00
2009,09,21,08,34,12.00
2009,09,21,08,35,12.20
2009,09,21,08,36,12.30
2009,09,21,08,37,12.40
2009,09,21,08,38,12.50
2009,09,21,08,39,12.50
2009,09,21,08,40,12.60
2009,09,21,08,41,12.80
2009,09,21,08,42,12.90
2009,09,21,08,43,12.90
2009,09,21,08,44,13.00
2009,09,21,08,45,13.00
2009,09,21,08,46,13.10
2009,09,21,08,47,13.20
2009,09,21,08,48,13.30
2009,09,21,08,49,13.40
2009,09,21,08,50,13.60
2009,09,21,08,51,13.70
2009,09,21,08,52,13.80
2009,09,21,08,53,13.90
2009,09,21,08,54,14.00
2009,09,21,08,55,14.00
2009,09,21,08,56,14.10
2009,09,21,08,57,14.20
2009,09,21,08,58,14.30
2009,09,21,08,59,14.30
2009,09,21,09,00,14.40
2009,09,21,09,01,14.40
2009,09,21,09,02,14.50
2009,09,21,09,03,14.60
2009,09,21,09,04,14.70
2009,09,21,09,05,14.80
2009,09,21,09,06,14.80
2009,09,21,09,07,15.00
2009,09,21,09,08,15.00
2009,09,21,09,09,15.00
2009,09,21,09,10,15.00
2009,09,21,09,11,15.00
2009,09,21,09,12,15.00
2009,09,21,09,13,15.00
2009,09,21,09,14,15.00
2009,09,21,09,15,15.00
2009,09,21,09,16,15.00
2009,09,21,09,17,15.00
2009,09,21,09,18,15.00
2009,09,21,09,19,15.10
2009,09,21,09,20,15.20
2009,09,21,09,21,15.30
2009,09,21,09,22,15.30
2009,09,21,09,23,15.30
2009,09,21,09,24,15.30
2009,09,21,09,25,15.30
2009,09,21,09,26,15.30
2009,09,21,09,27,15.30
2009,09,21,09,28,15.40
2009,09,21,09,29,15.50
2009,09,21,09,30,15.50
2009,09,21,09,31,15.60
2009,09,21,09,32,15.50
2009,09,21,09,33,15.50
2009,09,21,09,34,15.40
2009,09,21,09,35,15.40
2009,09,21,09,36,15.30
2009,09,21,09,37,15.40
2009,09,21,09,38,15.50
2009,09,21,09,39,15.50
2009,09,21,09,40,15.50
2009,09,21,09,41,15.60
2009,09,21,09,42,15.70
2009,09,21,09,43,15.70
2009,09,21,09,44,15.60
2009,09,21,09,45,15.50
2009,09,21,09,46,15.50
2009,09,21,09,47,15.50
2009,09,21,09,48,15.50
2009,09,21,09,49,15.60
2009,09,21,09,50,15.60
2009,09,21,09,51,15.80
2009,09,21,09,52,15.80
2009,09,21,09,53,15.90
2009,09,21,09,54,15.90
2009,09,21,09,55,16.00
2009,09,21,09,56,16.10
2009,09,21,09,57,16.10
2009,09,21,09,58,16.00
2009,09,21,09,59,16.00
2009,09,21,10,00,16.00
2009,09,21,10,01,16.00
2009,09,21,10,02,16.00
2009,09,21,10,03,16.00
2009,09,21,10,04,16.10
2009,09,21,10,05,16.20
2009,09,21,10,06,16.20
2009,09,21,10,07,16.10
2009,09,21,10,08,16.10
2009,09,21,10,09,16.00
2009,09,21,10,10,16.00
2009,09,21,10,11,16.00
2009,09,21,10,12,16.00
2009,09,21,10,13,16.00
2009,09,21,10,14,16.00
2009,09,21,10,15,16.00
2009,09,21,10,16,16.00
2009,09,21,10,17,16.10
2009,09,21,10,18,16.10
2009,09,21,10,19,16.10
2009,09,21,10,20,16.10
2009,09,21,10,21,16.00
2009,09,21,10,22,15.90
2009,09,21,10,23,15.90
2009,09,21,10,24,15.90
2009,09,21,10,25,16.00
2009,09,21,10,26,16.00
2009,09,21,10,27,16.00
2009,09,21,10,28,15.90
2009,09,21,10,29,15.90
2009,09,21,10,30,15.90
2009,09,21,10,31,15.90
2009,09,21,10,32,16.00
2009,09,21,10,33,16.10
2009,09,21,10,34,16.20
2009,09,21,10,35,16.20
2009,09,21,10,36,16.30
2009,09,21,10,37,16.30
2009,09,21,10,38,16.40
2009,09,21,10,39,16.40
2009,09,21,10,40,16.50
2009,09,21,10,41,16.50
2009,09,21,10,42,16.50
2009,09,21,10,43,16.50
2009,09,21,10,44,16.50
2009,09,21,10,45,16.50
2009,09,21,10,46,16.50
2009,09,21,10,47,16.50
2009,09,21,10,48,16.50
2009,09,21,10,49,16.50
2009,09,21,10,50,16.50
2009,09,21,10,51,16.60
2009,09,21,10,52,16.70
2009,09,21,10,53,16.70
2009,09,21,10,54,16.80
2009,09,21,10,55,16.90
2009,09,21,10,56,16.90
2009,09,21,10,57,16.90
2009,09,21,10,58,16.90
2009,09,21,10,59,17.00
2009,09,21,11,00,17.00
2009,09,21,11,01,17.00
2009,09,21,11,02,16.90
2009,09,21,11,03,16.90
2009,09,21,11,04,16.90
2009,09,21,11,05,16.90
2009,09,21,11,06,17.00
2009,09,21,11,07,17.00
2009,09,21,11,08,17.00
2009,09,21,11,09,17.00
2009,09,21,11,10,17.00
2009,09,21,11,11,17.00
2009,09,21,11,12,17.00
2009,09,21,11,13,16.90
2009,09,21,11,14,16.90
2009,09,21,11,15,16.90
2009,09,21,11,16,17.10
2009,09,21,11,17,17.10
2009,09,21,11,18,17.10
2009,09,21,11,19,17.20
2009,09,21,11,20,17.20
2009,09,21,11,21,17.30
2009,09,21,11,22,17.30
2009,09,21,11,23,17.30
2009,09,21,11,24,17.30
2009,09,21,11,25,17.40
2009,09,21,11,26,17.50
2009,09,21,11,27,17.50
2009,09,21,11,28,17.60
2009,09,21,11,29,17.60
2009,09,21,11,30,17.60
2009,09,21,11,31,17.60
2009,09,21,11,32,17.60
2009,09,21,11,33,17.70
2009,09,21,11,34,17.70
2009,09,21,11,35,17.70
2009,09,21,11,36,17.70
2009,09,21,11,37,17.60
2009,09,21,11,38,17.60
2009,09,21,11,39,17.60
2009,09,21,11,40,17.50
2009,09,21,11,41,17.50
2009,09,21,11,42,17.40
2009,09,21,11,43,17.40
2009,09,21,11,44,17.40
2009,09,21,11,45,17.40
2009,09,21,11,46,17.40
2009,09,21,11,47,17.40
2009,09,21,11,48,17.30
2009,09,21,11,49,17.40
2009,09,21,11,50,17.40
2009,09,21,11,51,17.40
2009,09,21,11,52,17.30
2009,09,21,11,53,17.30
2009,09,21,11,54,17.20
2009,09,21,11,55,17.20
2009,09,21,11,56,17.20
2009,09,21,11,57,17.20
2009,09,21,11,58,17.20
2009,09,21,11,59,17.20
2009,09,21,12,00,17.20
2009,09,21,12,01,17.20
2009,09,21,12,02,17.30
2009,09,21,12,03,17.40
2009,09,21,12,04,17.40
2009,09,21,12,05,17.40
2009,09,21,12,06,17.40
2009,09,21,12,07,17.30
2009,09,21,12,08,17.30
2009,09,21,12,09,17.30
2009,09,21,12,10,17.30
2009,09,21,12,11,17.30
2009,09,21,12,12,17.30
2009,09,21,12,13,17.30
2009,09,21,12,14,17.30
2009,09,21,12,15,17.30
2009,09,21,12,16,17.40
2009,09,21,12,17,17.40
2009,09,21,12,18,17.40
2009,09,21,12,19,17.50
2009,09,21,12,20,17.50
2009,09,21,12,21,17.60
2009,09,21,12,22,17.70
2009,09,21,12,23,17.60
2009,09,21,12,24,17.60
2009,09,21,12,25,17.60
2009,09,21,12,26,17.50
2009,09,21,12,27,17.50
2009,09,21,12,28,17.50
2009,09,21,12,29,17.60
2009,09,21,12,30,17.60
2009,09,21,12,31,17.70
2009,09,21,12,32,17.70
2009,09,21,12,33,17.80
2009,09,21,12,34,17.80
2009,09,21,12,35,17.90
2009,09,21,12,36,18.00
2009,09,21,12,37,18.00
2009,09,21,12,38,18.00
2009,09,21,12,39,18.00
2009,09,21,12,40,18.00
2009,09,21,12,41,17.90
2009,09,21,12,42,17.90
2009,09,21,12,43,17.90
2009,09,21,12,44,17.90
2009,09,21,12,45,17.90
2009,09,21,12,46,17.90
2009,09,21,12,47,17.90
2009,09,21,12,48,18.00
2009,09,21,12,49,18.10
2009,09,21,12,50,18.10
2009,09,21,12,51,18.20
2009,09,21,12,52,18.20
2009,09,21,12,53,18.30
2009,09,21,12,54,18.30
2009,09,21,12,55,18.40
2009,09,21,12,56,18.50
2009,09,21,12,57,18.60
2009,09,21,12,58,18.60
2009,09,21,12,59,18.60
2009,09,21,13,00,18.70
2009,09,21,13,01,18.70
2009,09,21,13,02,18.60
2009,09,21,13,03,18.60
2009,09,21,13,04,18.60
2009,09,21,13,05,18.50
2009,09,21,13,06,18.60
2009,09,21,13,07,18.60
2009,09,21,13,08,18.70
2009,09,21,13,09,18.70
2009,09,21,13,10,18.80
2009,09,21,13,11,18.90
2009,09,21,13,12,19.00
2009,09,21,13,13,19.10
2009,09,21,13,14,19.10
2009,09,21,13,15,19.10
2009,09,21,13,16,19.10
2009,09,21,13,17,19.10
2009,09,21,13,18,19.10
2009,09,21,13,19,19.20
2009,09,21,13,20,19.20
2009,09,21,13,21,19.20
2009,09,21,13,22,19.20
2009,09,21,13,23,19.20
2009,09,21,13,24,19.20
2009,09,21,13,25,19.20
2009,09,21,13,26,19.20
2009,09,21,13,27,19.10
2009,09,21,13,28,19.10
2009,09,21,13,29,19.10
2009,09,21,13,30,19.10
2009,09,21,13,31,19.10
2009,09,21,13,32,19.00
2009,09,21,13,33,19.00
2009,09,21,13,34,19.00
2009,09,21,13,35,19.00
2009,09,21,13,36,19.00
2009,09,21,13,37,19.10
2009,09,21,13,38,19.10
2009,09,21,13,39,19.10
2009,09,21,13,40,19.10
2009,09,21,13,41,19.10
2009,09,21,13,42,19.10
2009,09,21,13,43,19.20
2009,09,21,13,44,19.30
2009,09,21,13,45,19.40
2009,09,21,13,46,19.40
2009,09,21,13,47,19.50
2009,09,21,13,48,19.60
2009,09,21,13,49,19.60
2009,09,21,13,50,19.50
2009,09,21,13,51,19.50
2009,09,21,13,52,19.40
2009,09,21,13,53,19.40
2009,09,21,13,54,19.40
2009,09,21,13,55,19.40
2009,09,21,13,56,19.40
2009,09,21,13,57,19.30
2009,09,21,13,58,19.30
2009,09,21,13,59,19.30
2009,09,21,14,00,19.30
2009,09,21,14,01,19.40
2009,09,21,14,02,19.40
2009,09,21,14,03,19.40
2009,09,21,14,04,19.40
2009,09,21,14,05,19.30
2009,09,21,14,06,19.30
2009,09,21,14,07,19.30
2009,09,21,14,08,19.30
2009,09,21,14,09,19.40
2009,09,21,14,10,19.40
2009,09,21,14,11,19.40
2009,09,21,14,12,19.40
2009,09,21,14,13,19.40
2009,09,21,14,14,19.40
2009,09,21,14,15,19.50
2009,09,21,14,16,19.50
2009,09,21,14,17,19.60
2009,09,21,14,18,19.60
2009,09,21,14,19,19.70
2009,09,21,14,20,19.70
2009,09,21,14,21,19.80
2009,09,21,14,22,19.80
2009,09,21,14,23,19.80
2009,09,21,14,24,19.80
2009,09,21,14,25,19.70
2009,09,21,14,26,19.80
2009,09,21,14,27,19.80
2009,09,21,14,28,19.80
2009,09,21,14,29,19.80
2009,09,21,14,30,19.90
2009,09,21,14,31,19.90
2009,09,21,14,32,19.90
2009,09,21,14,33,19.90
2009,09,21,14,34,19.90
2009,09,21,14,35,19.90
2009,09,21,14,36,20.00
2009,09,21,14,37,20.00
2009,09,21,14,38,19.90
2009,09,21,14,39,19.90
2009,09,21,14,40,19.90
2009,09,21,14,41,19.90
2009,09,21,14,42,20.00
2009,09,21,14,43,20.00
2009,09,21,14,44,19.90
2009,09,21,14,45,19.90
2009,09,21,14,46,19.90
2009,09,21,14,47,19.90
2009,09,21,14,48,19.90
2009,09,21,14,49,19.90
2009,09,21,14,50,20.00
2009,09,21,14,51,20.00
2009,09,21,14,52,20.10
2009,09,21,14,53,20.20
2009,09,21,14,54,20.30
2009,09,21,14,55,20.20
2009,09,21,14,56,20.20
2009,09,21,14,57,20.20
2009,09,21,14,58,20.30
2009,09,21,14,59,20.30
2009,09,21,15,00,20.30
2009,09,21,15,01,20.20
2009,09,21,15,02,20.20
2009,09,21,15,03,20.10
2009,09,21,15,04,20.00
2009,09,21,15,05,20.00
2009,09,21,15,06,20.00
2009,09,21,15,07,20.10
2009,09,21,15,08,20.10
2009,09,21,15,09,20.10
2009,09,21,15,10,20.00
2009,09,21,15,11,20.00
2009,09,21,15,12,20.00
2009,09,21,15,13,20.10
2009,09,21,15,14,20.10
2009,09,21,15,15,20.10
2009,09,21,15,16,20.20
2009,09,21,15,17,20.20
2009,09,21,15,18,20.30
2009,09,21,15,19,20.30
2009,09,21,15,20,20.30
2009,09,21,15,21,20.40
2009,09,21,15,22,20.40
2009,09,21,15,23,20.40
2009,09,21,15,24,20.40
2009,09,21,15,25,20.40
2009,09,21,15,26,20.40
2009,09,21,15,27,20.40
2009,09,21,15,28,20.30
2009,09,21,15,29,20.20
2009,09,21,15,30,20.10
2009,09,21,15,31,20.10
2009,09,21,15,32,20.10
2009,09,21,15,33,20.20
2009,09,21,15,34,20.20
2009,09,21,15,35,20.30
2009,09,21,15,36,20.40
2009,09,21,15,37,20.40
2009,09,21,15,38,20.40
2009,09,21,15,39,20.40
2009,09,21,15,40,20.40
2009,09,21,15,41,20.40
2009,09,21,15,42,20.50
2009,09,21,15,43,20.50
2009,09,21,15,44,20.40
2009,09,21,15,45,20.50
2009,09,21,15,46,20.50
2009,09,21,15,47,20.50
2009,09,21,15,48,20.50
2009,09,21,15,49,20.50
2009,09,21,15,50,20.40
2009,09,21,15,51,20.40
2009,09,21,15,52,20.50
2009,09,21,15,53,20.50
2009,09,21,15,54,20.60
2009,09,21,15,55,20.60
2009,09,21,15,56,20.60
2009,09,21,15,57,20.60
2009,09,21,15,58,20.60
2009,09,21,15,59,20.60
2009,09,21,16,00,20.60
2009,09,21,16,01,20.60
2009,09,21,16,02,20.60
2009,09,21,16,03,20.50
2009,09,21,16,04,20.50
2009,09,21,16,05,20.60
2009,09,21,16,06,20.60
2009,09,21,16,07,20.60
2009,09,21,16,08,20.60
2009,09,21,16,09,20.60
2009,09,21,16,10,20.60
2009,09,21,16,11,20.50
2009,09,21,16,12,20.50
2009,09,21,16,13,20.50
2009,09,21,16,14,20.50
2009,09,21,16,15,20.60
2009,09,21,16,16,20.60
2009,09,21,16,17,20.60
2009,09,21,16,18,20.60
2009,09,21,16,19,20.60
2009,09,21,16,20,20.60
2009,09,21,16,21,20.60
2009,09,21,16,22,20.60
2009,09,21,16,23,20.70
2009,09,21,16,24,20.70
2009,09,21,16,25,20.70
2009,09,21,16,26,20.70
2009,09,21,16,27,20.70
2009,09,21,16,28,20.60
2009,09,21,16,29,20.60
2009,09,21,16,30,20.50
2009,09,21,16,31,20.50
2009,09,21,16,32,20.50
2009,09,21,16,33,20.40
2009,09,21,16,34,20.40
2009,09,21,16,35,20.40
2009,09,21,16,36,20.40
2009,09,21,16,37,20.40
2009,09,21,16,38,20.40
2009,09,21,16,39,20.40
2009,09,21,16,40,20.40
2009,09,21,16,41,20.40
2009,09,21,16,42,20.40
2009,09,21,16,43,20.40
2009,09,21,16,44,20.40
2009,09,21,16,45,20.50
2009,09,21,16,46,20.50
2009,09,21,16,47,20.50
2009,09,21,16,48,20.40
2009,09,21,16,49,20.40
2009,09,21,16,50,20.40
2009,09,21,16,51,20.50
2009,09,21,16,52,20.60
2009,09,21,16,53,20.60
2009,09,21,16,54,20.60
2009,09,21,16,55,20.60
2009,09,21,16,56,20.60
2009,09,21,16,57,20.60
2009,09,21,16,58,20.60
2009,09,21,16,59,20.60
2009,09,21,17,00,20.50
2009,09,21,17,01,20.50
2009,09,21,17,02,20.50
2009,09,21,17,03,20.60
2009,09,21,17,04,20.60
2009,09,21,17,05,20.60
2009,09,21,17,06,20.50
2009,09,21,17,07,20.50
2009,09,21,17,08,20.50
2009,09,21,17,09,20.40
2009,09,21,17,10,20.40
2009,09,21,17,11,20.40
2009,09,21,17,12,20.40
2009,09,21,17,13,20.40
2009,09,21,17,14,20.30
2009,09,21,17,15,20.30
2009,09,21,17,16,20.30
2009,09,21,17,17,20.30
2009,09,21,17,18,20.30
2009,09,21,17,19,20.30
2009,09,21,17,20,20.30
2009,09,21,17,21,20.20
2009,09,21,17,22,20.20
2009,09,21,17,23,20.20
2009,09,21,17,24,20.20
2009,09,21,17,25,20.20
2009,09,21,17,26,20.20
2009,09,21,17,27,20.20
2009,09,21,17,28,20.20
2009,09,21,17,29,20.20
2009,09,21,17,30,20.20
2009,09,21,17,31,20.20
2009,09,21,17,32,20.20
2009,09,21,17,33,20.20
2009,09,21,17,34,20.20
2009,09,21,17,35,20.10
2009,09,21,17,36,20.10
2009,09,21,17,37,20.10
2009,09,21,17,38,20.10
2009,09,21,17,39,20.10
2009,09,21,17,40,20.10